This is the latest recevied weather packets stored in our database for station/object W1HVD. If no packets are shown the sender has not sent any weather packets the latest 10 day(s).
| Time | Temp. | Humidity | Pressure | Rain* | Wind** | Luminosity | Snow |
|---|---|---|---|---|---|---|---|
| 1777891289 | 6.67° C | 70% | 1011.6 hPa | 0 mm | - | 40 W/m² | - |
| 1777890984 | 6.11° C | 71% | 1011.8 hPa | 0 mm | - | 38 W/m² | - |
| 1777890679 | 5.56° C | 72% | 1011.7 hPa | 0 mm | - | 37 W/m² | - |
| 1777890375 | 5.56° C | 72% | 1011.7 hPa | 0 mm | - | 29 W/m² | - |
| 1777890070 | 5.56° C | 72% | 1011.6 hPa | 0 mm | - | 24 W/m² | - |
| 1777889769 | 5° C | 72% | 1011.6 hPa | 0 mm | - | 19 W/m² | - |
| 1777889466 | 5° C | 73% | 1011.6 hPa | 0 mm | - | 16 W/m² | - |
| 1777889163 | 5° C | 72% | 1011.6 hPa | 0 mm | - | 14 W/m² | - |
| 1777888862 | 5° C | 71% | 1011.4 hPa | 0 mm | - | 12 W/m² | - |
| 1777888557 | 5° C | 72% | 1011.5 hPa | 0 mm | - | 10 W/m² | - |
| 1777888253 | 5° C | 71% | 1011.2 hPa | 0 mm | - | 7 W/m² | - |
| 1777887950 | 5° C | 72% | 1011.5 hPa | 0 mm | - | 5 W/m² | - |
| 1777887648 | 5° C | 71% | 1011.5 hPa | 0 mm | - | 3 W/m² | - |
| 1777887344 | 5° C | 74% | 1011.5 hPa | 0 mm | - | 2 W/m² | - |
| 1777887039 | 5° C | 71% | 1011.6 hPa | 0 mm | - | 1 W/m² | - |
| 1777886735 | 5° C | 72% | 1011.5 hPa | 0 mm | - | 1 W/m² | - |
| 1777886432 | 5° C | 71% | 1011.6 hPa | 0 mm | - | 0 W/m² | - |
| 1777886130 | 5.56° C | 68% | 1011.4 hPa | 0 mm | - | 0 W/m² | - |
| 1777885828 | 5° C | 72% | 1011.4 hPa | 0 mm | - | 0 W/m² | - |
| 1777885526 | 5° C | 70% | 1011.4 hPa | 0 mm | - | 0 W/m² | - |
| 1777885224 | 5.56° C | 69% | 1011.4 hPa | 0 mm | - | 0 W/m² | - |
| 1777884922 | 5.56° C | 68% | 1011.5 hPa | 0 mm | - | 0 W/m² | - |
| 1777884617 | 5.56° C | 68% | 1011.3 hPa | 0 mm | - | 0 W/m² | - |
| 1777884315 | 5.56° C | 70% | 1011.5 hPa | 0 mm | - | 0 W/m² | - |
| 1777884010 | 5.56° C | 70% | 1011.3 hPa | 0 mm | - | 0 W/m² | - |
* Rain latest hour (hover to see other rain measurements)
** Current wind speed in m/s (hover to see current wind gust speed)